sat.trackr.live / text

‹ back to catalog

AISSAT 4

NORAD 68454 · 2026-067AQ

PAYLOAD ACTIVE UNKNOWN

§ Identity

Operator
Country
NOR
Launch date
2026-03-30
Launch site
AFWTR
Launch vehicle
Mass (kg)
RCS (m²)

External: N2YO · Heavens-Above · Gunter

§ Orbital elements

Epoch: 2026-09-20T03:32:50.423712Z

Period
94.81 min
Inclination
97.4673°
Eccentricity
0.0007213
Mean motion
15.18756828 rev/d
Perigee alt
504.6 km
Apogee alt
514.6 km
Semi-major
6,887.7 km
B*
1.8721e-4
RAAN
220.2801°
Arg perigee
92.5077°
Mean anomaly
267.6983°
Rev number
2,634

§ Raw data

AISSAT 41 68454U 26067AQ  26263.14780583  .00003824  00000+0  18721-3 0  99912 68454  97.4673 220.2801 0007213  92.5077 267.6983 15.18756828 26340

JSON: /api/v1/satellites/68454 · /tle

For live sub-satellite position, see the globe view (requires WebGL).

§ Visibility from observer

Set your observer location to see the next 7 days of passes ≥ 10°. The values pass through the URL so the page stays shareable.

No JS? Fill the form by hand. The geolocation button needs JavaScript.